Regional Weather Roundup
Issued by NWS

Home | Current Version | Previous Version | Text Only | Print | Product List | Glossary Off
Versions: 1 2 3 4 5 6 7 8 9 10 11 12 13 14 15 16 17 18 19 20 21 22 23 24 25 26 27 28 29 30 31 32 33 34 35 36 37 38 39 40 41 42 43 44 45 46 47 48 49 50

000
ASUS43 KMKX 311159
RWRWI

WISCONSIN REGIONAL WEATHER ROUNDUP
NATIONAL WEATHER SERVICE MILWAUKEE/SULLIVAN WI
600 AM CST SAT JAN 31 2015

NOTE: "FAIR" INDICATES FEW OR NO CLOUDS BELOW 12,000 FEET WITH NO
SIGNIFICANT WEATHER AND/OR OBSTRUCTIONS TO VISIBILITY.

WIZ001-002-006>008-014>016-023>028-311300-
NORTHWEST WISCONSIN

CITY           SKY/WX    TMP DP  RH WIND       PRES   REMARKS
SUPERIOR ARPT  CLOUDY    21  15  78 SW5       30.16S WCI  15
ASHLAND        CLOUDY    22  16  78 W6        30.15R WCI  14
6HR MIN TEMP:  20; 6HR MAX TEMP:  22;

HAYWARD        CLOUDY    21  14  74 CALM      30.13R
6HR MIN TEMP:  19; 6HR MAX TEMP:  21;

SIREN          CLOUDY    23  19  83 CALM      30.15R
CUMBERLAND     CLOUDY    21  16  79 CALM      30.12R
RICE LAKE      CLOUDY    20  13  75 CALM      30.15R
CHETEK         CLOUDY    19  13  76 CALM      30.14R
LADYSMITH      CLOUDY    20  13  73 CALM      30.13R
EAU CLAIRE     NOT AVBL
MENOMONIE      CLOUDY    24  18  77 CALM      30.13R
NEW RICHMOND   CLOUDY    26  21  83 CALM      30.13R
OSCEOLA        CLOUDY    26  22  85 CALM      30.16R
$$

WIZ003>005-009-010-017-018-311300-
NORTH CENTRAL WISCONSIN

CITY           SKY/WX    TMP DP  RH WIND       PRES   REMARKS
MANITOWISH WTR CLOUDY    17  15  90 W6        30.06R WCI   9
ARBOR VITAE    CLOUDY    19  15  83 CALM      30.07R
WOODRUFF       CLOUDY    19  15  83 CALM      30.07R
RHINELANDER    CLOUDY    17  11  77 W6        30.08R WCI   9
6HR MIN TEMP:  14; 6HR MAX TEMP:  17;

EAGLE RIVER    CLOUDY    17  11  79 W6        30.06R WCI   8
LAND O LAKES   CLOUDY    17  11  78 CALM      30.07R
PHILLIPS       CLOUDY    18  13  80 SW3       30.09R
TOMAHAWK       CLOUDY    19  12  74 CALM      30.09R
MEDFORD        CLOUDY    19  12  74 W3        30.09S
MERRILL        CLOUDY    19  11  70 CALM      30.10R
$$

WIZ029-030-035-036-043>047-311300-
CENTRAL WISCONSIN

CITY           SKY/WX    TMP DP  RH WIND       PRES   REMARKS
WAUSAU         CLOUDY    19  11  70 S3        30.10R
6HR MIN TEMP:  15; 6HR MAX TEMP:  19;

MOSINEE        CLOUDY    19  12  73 SW3       30.12S
MARSHFIELD     CLOUDY    20  12  71 SW5       30.11R WCI  13
6HR MIN TEMP:  14; 6HR MAX TEMP:  20;

STEVENS POINT  CLOUDY    19  13  76 CALM      30.13S
WAUPACA        CLOUDY    22  14  71 S5        30.15S WCI  16
WAUTOMA        NOT AVBL
WISC RAPIDS    CLOUDY    21  12  68 S3        30.14S
6HR MIN TEMP:  13; 6HR MAX TEMP:  21;

CAMP DOUGLAS   NOT AVBL
$$

WIZ011>013-019>022-031-037>040-048>050-311300-
NORTHEAST WISCONSIN

CITY           SKY/WX    TMP DP  RH WIND       PRES   REMARKS
ANTIGO         CLOUDY    18  11  75 W3        30.09R
SHAWANO        CLOUDY    22  13  66 SW3       30.14S
OCONTO         CLOUDY    21  13  71 MISG      30.14S
STURGEON BAY   CLOUDY    21  12  68 SW8       30.15S WCI  12
6HR MIN TEMP:  19; 6HR MAX TEMP:  21;

GREEN BAY      CLOUDY    21  15  78 SW7       30.15S WCI  12
6HR MIN TEMP:  19; 6HR MAX TEMP:  21;

MANITOWOC      NOT AVBL
APPLETON       CLOUDY    21  16  79 SW8       30.14F WCI  12
CLINTONVILLE   CLOUDY    21  12  68 SW5       30.14S WCI  15
OSHKOSH        CLOUDY    22  15  75 S6        30.15F WCI  14
6HR MIN TEMP:  15; 6HR MAX TEMP:  22;

$$

WIZ032>034-041-042-053>061-311300-
SOUTHWEST WISCONSIN

CITY           SKY/WX    TMP DP  RH WIND       PRES   REMARKS
LA CROSSE      CLOUDY    24  16  71 S6        30.16S WCI  17
6HR MIN TEMP:  22; 6HR MAX TEMP:  25;

SPARTA         CLOUDY    25  15  65 CALM      30.15S
VIROQUA        CLEAR     19  14  80 SW5       30.12S WCI  12
BOSCOBEL       PTCLDY    14  10  84 CALM      30.18F
6HR MIN TEMP:  14; 6HR MAX TEMP:  22;

PRAIRIE DU CHI CLEAR     20  14  77 CALM      30.18S
PLATTEVILLE    CLEAR     20  16  84 S6        30.17S WCI  12
$$

WIZ056-057-062-063-064-067-068-311300-
SOUTH CENTRAL WISCONSIN

CITY           SKY/WX    TMP DP  RH WIND       PRES   REMARKS
REEDSBURG      CLEAR     21  14  75 CALM      30.14S
BARABOO/DELLS  CLEAR     21  14  73 W6        30.14S WCI  14
LONE ROCK      NOT AVBL
MINERAL POINT  CLEAR     23  18  80 S7        30.15S WCI  15
MADISON        MOCLDY    24  15  68 VRB5      30.16F WCI  18
6HR MIN TEMP:  23; 6HR MAX TEMP:  25;

MIDDLETON      CLEAR     24  15  69 SW3       30.17S
WATERTOWN      CLOUDY    22  19  85 S5        30.17S WCI  16
MONROE         CLEAR     23  19  86 SW13      30.16S WCI  11
JANESVILLE     CLOUDY    27  18  69 SW8       30.19F WCI  18
$$

WIZ051-052-058>065-066-070>072-311300-
SOUTHEAST WISCONSIN

CITY           SKY/WX    TMP DP  RH WIND       PRES   REMARKS
MILWAUKEE      MOCLDY    23  16  74 SW9       30.19F WCI  13
6HR MIN TEMP:  19; 6HR MAX TEMP:  23;

WAUKESHA       CLOUDY    19  16  86 SW5       30.19F WCI  13
MILWAUKEE/TIMM CLOUDY    23  18  80 SW8       30.19F WCI  14
RACINE         MOCLDY    23  16  74 SW8       30.21F WCI  14
6HR MIN TEMP:  17; 6HR MAX TEMP:  23;

BURLINGTON     CLOUDY    22  17  83 S6        30.19F WCI  14
KENOSHA        CLOUDY    23  18  81 SW8       30.20F WCI  14
6HR MIN TEMP:  18; 6HR MAX TEMP:  23;

FOND DU LAC    CLOUDY    23  15  71 SW9       30.15F WCI  13
6HR MIN TEMP:  15; 6HR MAX TEMP:  24;

SHEBOYGAN      CLOUDY    23  16  74 SW9       30.16F WCI  13
6HR MIN TEMP:  17; 6HR MAX TEMP:  23;

WEST BEND      CLOUDY    25  18  74 SW6       30.16F WCI  18
JUNEAU         CLOUDY    21  17  83 S8        30.17F WCI  12
$$

LSZ147-162-311300-
LAKE SUPERIOR

STATION/POSITION TIME  TEMP    WIND        PRES    WAVE
                       AIR SEA DIR/SP/G            HT/PER
                 (UTC) (F)     (DEG/KT/KT) (MB)    (FT/S)
DEVILS ISLAND    1100   24     300/ 12/ 15 1021.2R
PORT WING        1140   22     230/  5/  8 1021.0R
SAXON HARBOR     1100   23     220/  5/  9 1020.0R
$$

LMZ867-665-643>646-311300-
LAKE MICHIGAN

STATION/POSITION TIME  TEMP    WIND        PRES    WAVE
                       AIR SEA DIR/SP/G            HT/PER
                 (UTC) (F)     (DEG/KT/KT) (MB)    (FT/S)
NORTHPORT PIER   1119   22     240/  7/ 13 1020.3F
SISTER BAY       1113   22     230/ 12/ 14   N/A
KEWAUNEE LAKESHO 1100   22     240/  5/  9 1020.4F
SHEBOYGAN LAKESH 1100   22     220/  7/  8 1023.3F
PORT WASHINGTON  1140   22     230/  4/  7 1022.7F
MILWAUKEE LAKESH 1100   24     240/ 12/ 15   N/A
KENOSHA   LAKESH 1100   23     220/  5/  8 1023.4F
$$

TC  - TEMPERATURE IN CELSIUS
VSB - VISIBILITY IN STATUTE MILES
WCI - WIND CHILL INDEX
HX  - HEAT INDEX



USA.gov is the U.S. government's official web portal to all federal, state and local government web resources and services.